• în România
  • Lista ţărilor
  • Pe 7 zile
  • Temperatura apei
  • Hartă satelitară
  • Meteo pe hartă
  • Widget-uri
  • user-avatar
    Intrare

    Meteo pe oră la Uige

    Astăzi, 20 Noiembrie, Luni

    Timp Temperatura Precipitaţii Vânt Presiune Umiditate
    00:00 +19°C° 0,8 mm 0 m/s 691 mmHg 97%
    01:00 +19°C° 0 mm 0 m/s 691 mmHg 97%
    02:00 +19°C° 0,4 mm 0 m/s 691 mmHg 97%
    03:00 +19°C° 0,4 mm 0 m/s 691 mmHg 97%
    04:00 +19°C° 0,4 mm 0 m/s 690 mmHg 98%
    05:00 +19°C° 0,7 mm 0 m/s 691 mmHg 97%
    06:00 +19°C° 0,7 mm 0 m/s 691 mmHg 97%
    07:00 +20°C° 0 mm 0 m/s 691 mmHg 97%
    08:00 +20°C° 0,9 mm 0 m/s 691 mmHg 96%
    09:00 +21°C° 0,9 mm 0 m/s 692 mmHg 95%
    10:00 +22°C° 0,9 mm 0 m/s 692 mmHg 93%
    11:00 +23°C° 0,1 mm 0 m/s 691 mmHg 86%
    12:00 +24°C° 0,1 mm 0 m/s 691 mmHg 78%
    13:00 +28°C° 0,1 mm 1 m/s 691 mmHg 70%
    14:00 +28°C° 0 mm 1 m/s 690 mmHg 70%
    15:00 +28°C° 0 mm 1 m/s 690 mmHg 69%
    16:00 +28°C° 0 mm 1 m/s 690 mmHg 68%
    17:00 +25°C° 0,4 mm 0 m/s 690 mmHg 75%
    18:00 +23°C° 0,4 mm 0 m/s 690 mmHg 81%
    19:00 +21°C° 0,4 mm 0 m/s 690 mmHg 88%
    20:00 +21°C° 0,7 mm 0 m/s 690 mmHg 90%
    21:00 +21°C° 0,7 mm 0 m/s 691 mmHg 92%
    22:00 +20°C° 0,7 mm 0 m/s 691 mmHg 93%
    23:00 +20°C° 0,7 mm 0 m/s 691 mmHg 94%

    Mâine, 21 Noiembrie, Marţi

    Timp Temperatura Precipitaţii Vânt Presiune Umiditate
    00:00 +20°C° 0,7 mm 0 m/s 691 mmHg 95%
    01:00 +19°C° 0,7 mm 0 m/s 690 mmHg 96%
    02:00 +21°C° 0,1 mm 1 m/s 690 mmHg 97%
    03:00 +21°C° 0,1 mm 1 m/s 690 mmHg 97%
    04:00 +21°C° 0,1 mm 1 m/s 690 mmHg 97%
    05:00 +22°C° 0,1 mm 1 m/s 690 mmHg 97%
    06:00 +22°C° 0,1 mm 1 m/s 691 mmHg 96%
    07:00 +22°C° 0,1 mm 1 m/s 691 mmHg 95%
    08:00 +23°C° 0,4 mm 1 m/s 691 mmHg 91%
    09:00 +25°C° 0,4 mm 1 m/s 692 mmHg 87%
    10:00 +26°C° 0,4 mm 2 m/s 692 mmHg 83%
    11:00 +27°C° 0,5 mm 2 m/s 691 mmHg 76%
    12:00 +28°C° 0,5 mm 1 m/s 691 mmHg 70%
    13:00 +30°C° 0,5 mm 1 m/s 690 mmHg 63%
    14:00 +30°C° 0,6 mm 1 m/s 690 mmHg 65%
    15:00 +30°C° 0,6 mm 1 m/s 689 mmHg 67%
    16:00 +29°C° 0,6 mm 1 m/s 689 mmHg 69%
    17:00 +27°C° 1,6 mm 1 m/s 689 mmHg 76%
    18:00 +25°C° 1,6 mm 1 m/s 689 mmHg 84%
    19:00 +23°C° 1,6 mm 1 m/s 689 mmHg 92%
    20:00 +23°C° 0,9 mm 1 m/s 690 mmHg 93%
    21:00 +22°C° 0,9 mm 1 m/s 691 mmHg 94%
    22:00 +22°C° 0,9 mm 1 m/s 691 mmHg 95%
    23:00 +22°C° 0,5 mm 1 m/s 691 mmHg 96%

    Poimâine, 22 Noiembrie, Miercuri

    Timp Temperatura Precipitaţii Vânt Presiune Umiditate
    00:00 +20°C° 0,5 mm 0 m/s 691 mmHg 97%
    01:00 +19°C° 0,5 mm 0 m/s 690 mmHg 97%
    02:00 +19°C° 0,2 mm 0 m/s 690 mmHg 98%
    03:00 +19°C° 0,2 mm 0 m/s 690 mmHg 98%
    04:00 +19°C° 0,2 mm 0 m/s 690 mmHg 98%
    05:00 +19°C° 0,4 mm 0 m/s 690 mmHg 98%
    06:00 +20°C° 0,4 mm 0 m/s 691 mmHg 97%
    07:00 +20°C° 0,4 mm 0 m/s 691 mmHg 97%
    08:00 +22°C° 0,7 mm 0 m/s 692 mmHg 94%
    09:00 +23°C° 0,7 mm 0 m/s 692 mmHg 90%
    10:00 +24°C° 0,7 mm 0 m/s 692 mmHg 87%
    11:00 +24°C° 0,8 mm 0 m/s 691 mmHg 87%
    12:00 +26°C° 0,8 mm 1 m/s 691 mmHg 86%
    13:00 +26°C° 0,8 mm 1 m/s 690 mmHg 86%
    14:00 +26°C° 0,6 mm 1 m/s 690 mmHg 87%
    15:00 +26°C° 0,6 mm 1 m/s 689 mmHg 88%
    16:00 +25°C° 0,6 mm 1 m/s 689 mmHg 89%
    17:00 +24°C° 0,4 mm 1 m/s 689 mmHg 92%
    18:00 +23°C° 0,4 mm 1 m/s 690 mmHg 95%
    19:00 +22°C° 0,4 mm 1 m/s 690 mmHg 97%
    20:00 +22°C° 0,4 mm 1 m/s 691 mmHg 97%
    21:00 +22°C° 0,4 mm 1 m/s 691 mmHg 97%
    22:00 +19°C° 0,4 mm 0 m/s 692 mmHg 97%
    23:00 +21°C° 0,5 mm 1 m/s 691 mmHg 98%

    23 Noiembrie, Joi

    Timp Temperatura Precipitaţii Vânt Presiune Umiditate
    00:00 +21°C° 0,5 mm 1 m/s 690 mmHg 98%
    01:00 +21°C° 0,5 mm 1 m/s 690 mmHg 98%
    02:00 +21°C° 0,4 mm 1 m/s 690 mmHg 98%
    03:00 +21°C° 0,4 mm 1 m/s 690 mmHg 98%
    04:00 +21°C° 0,4 mm 1 m/s 689 mmHg 99%
    05:00 +21°C° 0,2 mm 1 m/s 690 mmHg 98%
    06:00 +21°C° 0,2 mm 1 m/s 690 mmHg 97%
    07:00 +21°C° 0,2 mm 1 m/s 691 mmHg 97%
    08:00 +23°C° 0,3 mm 1 m/s 691 mmHg 89%
    09:00 +25°C° 0,3 mm 1 m/s 691 mmHg 82%
    10:00 +27°C° 0,3 mm 1 m/s 692 mmHg 75%
    11:00 +27°C° 1,3 mm 1 m/s 691 mmHg 76%
    12:00 +28°C° 1,3 mm 1 m/s 690 mmHg 77%
    13:00 +28°C° 1,3 mm 1 m/s 690 mmHg 78%
    14:00 +27°C° 1,6 mm 1 m/s 689 mmHg 82%
    15:00 +26°C° 1,6 mm 1 m/s 689 mmHg 87%
    16:00 +26°C° 1,6 mm 1 m/s 688 mmHg 91%
    17:00 +22°C° 0,3 mm 0 m/s 689 mmHg 92%
    18:00 +21°C° 0,3 mm 0 m/s 689 mmHg 93%
    19:00 +20°C° 0,3 mm 0 m/s 689 mmHg 94%
    20:00 +20°C° 0,1 mm 0 m/s 690 mmHg 94%
    21:00 +20°C° 0,1 mm 0 m/s 690 mmHg 94%
    22:00 +19°C° 0,1 mm 0 m/s 691 mmHg 94%
    23:00 +19°C° 0,2 mm 0 m/s 690 mmHg 94%

    24 Noiembrie, Vineri

    Timp Temperatura Precipitaţii Vânt Presiune Umiditate
    00:00 +19°C° 0,2 mm 0 m/s 690 mmHg 95%
    01:00 +19°C° 0,2 mm 0 m/s 690 mmHg 95%
    02:00 +18°C° 0,1 mm 0 m/s 689 mmHg 96%
    03:00 +18°C° 0,1 mm 0 m/s 689 mmHg 96%
    04:00 +18°C° 0,1 mm 0 m/s 689 mmHg 97%
    05:00 +19°C° 0 mm 0 m/s 690 mmHg 96%
    06:00 +19°C° 0 mm 0 m/s 690 mmHg 95%
    07:00 +20°C° 0 mm 0 m/s 691 mmHg 95%
    08:00 +22°C° 0,6 mm 0 m/s 691 mmHg 89%
    09:00 +24°C° 0,6 mm 0 m/s 692 mmHg 84%
    10:00 +26°C° 0,6 mm 0 m/s 692 mmHg 79%
    11:00 +27°C° 1,7 mm 1 m/s 691 mmHg 80%
    12:00 +27°C° 1,7 mm 1 m/s 690 mmHg 82%
    13:00 +27°C° 1,7 mm 1 m/s 689 mmHg 83%
    14:00 +27°C° 1 mm 1 m/s 689 mmHg 85%
    15:00 +26°C° 1 mm 1 m/s 689 mmHg 86%
    16:00 +26°C° 1 mm 1 m/s 689 mmHg 88%
    17:00 +25°C° 0,9 mm 1 m/s 689 mmHg 91%
    18:00 +23°C° 0,9 mm 1 m/s 690 mmHg 93%
    19:00 +22°C° 0,9 mm 1 m/s 690 mmHg 96%
    20:00 +20°C° 0,4 mm 0 m/s 690 mmHg 96%
    21:00 +19°C° 0,4 mm 0 m/s 691 mmHg 96%
    22:00 +19°C° 0,4 mm 0 m/s 691 mmHg 96%
    23:00 +19°C° 0,3 mm 0 m/s 691 mmHg 97%

    25 Noiembrie, Sâmbătă

    Timp Temperatura Precipitaţii Vânt Presiune Umiditate
    00:00 +19°C° 0,3 mm 0 m/s 690 mmHg 97%
    01:00 +21°C° 0,3 mm 1 m/s 690 mmHg 98%
    02:00 +21°C° 0,2 mm 1 m/s 690 mmHg 98%
    03:00 +20°C° 0,2 mm 1 m/s 690 mmHg 98%
    04:00 +20°C° 0,2 mm 1 m/s 690 mmHg 98%
    05:00 +21°C° 0,1 mm 1 m/s 690 mmHg 98%
    06:00 +20°C° 0,1 mm 0 m/s 691 mmHg 97%
    07:00 +20°C° 0,1 mm 0 m/s 691 mmHg 97%
    08:00 +24°C° 0,4 mm 1 m/s 692 mmHg 90%
    09:00 +25°C° 0,4 mm 1 m/s 692 mmHg 83%
    10:00 +27°C° 0,4 mm 1 m/s 692 mmHg 77%
    11:00 +27°C° 0,8 mm 2 m/s 691 mmHg 79%
    12:00 +27°C° 0,8 mm 2 m/s 691 mmHg 81%
    13:00 +27°C° 0,8 mm 2 m/s 690 mmHg 83%
    14:00 +26°C° 0,9 mm 2 m/s 689 mmHg 85%
    15:00 +26°C° 0,9 mm 2 m/s 689 mmHg 87%
    16:00 +25°C° 0,9 mm 2 m/s 689 mmHg 90%
    17:00 +24°C° 0,7 mm 2 m/s 689 mmHg 92%
    18:00 +23°C° 0,7 mm 1 m/s 690 mmHg 95%
    19:00 +22°C° 0,7 mm 1 m/s 690 mmHg 97%
    20:00 +22°C° 0,5 mm 1 m/s 691 mmHg 98%
    21:00 +22°C° 0,5 mm 1 m/s 691 mmHg 98%
    22:00 +20°C° 0,5 mm 0 m/s 692 mmHg 98%
    23:00 +22°C° 0,8 mm 1 m/s 691 mmHg 98%
    Arată mai mult